• In Germany
  • List of Countries
  • For 7 days
  • Water Temperature
  • Satellite Maps
  • Weather Map
  • Weather Widgets
  • user-avatar
    Login

    Hourly Weather Darwin

    Today, 23 September, Saturday

    Time Temperature Precipitation Wind Pressure Humidity
    00:00 +29°C° 0 mm 2 mps 759 mmHg 74%
    01:00 +29°C° 0 mm 2 mps 759 mmHg 76%
    02:00 +29°C° 0 mm 1 mps 759 mmHg 78%
    03:00 +28°C° 0 mm 1 mps 759 mmHg 80%
    04:00 +28°C° 0 mm 1 mps 759 mmHg 82%
    05:00 +28°C° 0 mm 1 mps 759 mmHg 83%
    06:00 +28°C° 0 mm 1 mps 759 mmHg 85%
    07:00 +30°C° 0 mm 1 mps 759 mmHg 73%
    08:00 +32°C° 0 mm 1 mps 759 mmHg 61%
    09:00 +35°C° 0 mm 1 mps 760 mmHg 50%
    10:00 +36°C° 0 mm 1 mps 759 mmHg 44%
    11:00 +38°C° 0 mm 2 mps 759 mmHg 38%
    12:00 +40°C° 0 mm 3 mps 759 mmHg 32%
    13:00 +40°C° 0 mm 3 mps 758 mmHg 33%
    14:00 +40°C° 0 mm 4 mps 757 mmHg 33%
    15:00 +38°C° 0 mm 4 mps 757 mmHg 37%
    16:00 +36°C° 0 mm 4 mps 757 mmHg 41%
    17:00 +35°C° 0 mm 3 mps 757 mmHg 45%
    18:00 +34°C° 0 mm 3 mps 757 mmHg 50%
    19:00 +33°C° 0 mm 3 mps 757 mmHg 54%
    20:00 +31°C° 0 mm 2 mps 758 mmHg 58%
    21:00 +30°C° 0 mm 3 mps 758 mmHg 64%
    22:00 +30°C° 0 mm 2 mps 758 mmHg 66%
    23:00 +30°C° 0 mm 2 mps 758 mmHg 68%

    Tomorrow, 24 September, Sunday

    Time Temperature Precipitation Wind Pressure Humidity
    00:00 +29°C° 0 mm 2 mps 758 mmHg 71%
    01:00 +29°C° 0 mm 2 mps 758 mmHg 73%
    02:00 +29°C° 0 mm 1 mps 758 mmHg 75%
    03:00 +28°C° 0 mm 1 mps 758 mmHg 77%
    04:00 +28°C° 0 mm 1 mps 758 mmHg 79%
    05:00 +28°C° 0 mm 1 mps 759 mmHg 81%
    06:00 +27°C° 0 mm 1 mps 759 mmHg 83%
    07:00 +30°C° 0 mm 1 mps 759 mmHg 72%
    08:00 +32°C° 0 mm 1 mps 759 mmHg 61%
    09:00 +35°C° 0 mm 1 mps 759 mmHg 49%
    10:00 +36°C° 0 mm 1 mps 759 mmHg 45%
    11:00 +38°C° 0 mm 2 mps 758 mmHg 40%
    12:00 +39°C° 0 mm 3 mps 758 mmHg 36%
    13:00 +40°C° 0 mm 4 mps 757 mmHg 36%
    14:00 +40°C° 0 mm 4 mps 757 mmHg 37%
    15:00 +38°C° 0 mm 4 mps 756 mmHg 37%
    16:00 +37°C° 0 mm 4 mps 756 mmHg 42%
    17:00 +35°C° 0 mm 4 mps 756 mmHg 46%
    18:00 +34°C° 0 mm 4 mps 756 mmHg 51%
    19:00 +33°C° 0 mm 4 mps 757 mmHg 57%
    20:00 +32°C° 0 mm 4 mps 757 mmHg 64%
    21:00 +30°C° 0 mm 4 mps 758 mmHg 70%
    22:00 +30°C° 0 mm 3 mps 758 mmHg 72%
    23:00 +30°C° 0 mm 3 mps 758 mmHg 75%

    Day after tomorrow, 25 September, Monday

    Time Temperature Precipitation Wind Pressure Humidity
    00:00 +29°C° 0 mm 3 mps 758 mmHg 77%
    01:00 +29°C° 0 mm 3 mps 758 mmHg 78%
    02:00 +29°C° 0 mm 2 mps 758 mmHg 79%
    03:00 +29°C° 0 mm 2 mps 757 mmHg 80%
    04:00 +28°C° 0 mm 2 mps 758 mmHg 81%
    05:00 +28°C° 0 mm 1 mps 758 mmHg 82%
    06:00 +28°C° 0 mm 1 mps 758 mmHg 83%
    07:00 +30°C° 0 mm 1 mps 759 mmHg 74%
    08:00 +32°C° 0 mm 1 mps 759 mmHg 64%
    09:00 +34°C° 0 mm 1 mps 759 mmHg 54%
    10:00 +36°C° 0.1 mm 2 mps 759 mmHg 51%
    11:00 +37°C° 0.1 mm 2 mps 758 mmHg 48%
    12:00 +37°C° 0.1 mm 3 mps 758 mmHg 45%
    13:00 +37°C° 0.6 mm 3 mps 757 mmHg 47%
    14:00 +37°C° 0.6 mm 3 mps 757 mmHg 48%
    15:00 +36°C° 0.6 mm 3 mps 756 mmHg 50%
    16:00 +36°C° 0 mm 3 mps 756 mmHg 51%
    17:00 +35°C° 0 mm 3 mps 756 mmHg 52%
    18:00 +35°C° 0 mm 3 mps 756 mmHg 53%
    19:00 +34°C° 0 mm 3 mps 757 mmHg 58%
    20:00 +33°C° 0 mm 3 mps 758 mmHg 64%
    21:00 +31°C° 0 mm 3 mps 758 mmHg 69%
    22:00 +30°C° 0 mm 3 mps 758 mmHg 71%
    23:00 +30°C° 0 mm 3 mps 758 mmHg 74%

    26 September, Tuesday

    Time Temperature Precipitation Wind Pressure Humidity
    00:00 +29°C° 0 mm 3 mps 758 mmHg 76%
    01:00 +29°C° 0.1 mm 3 mps 758 mmHg 78%
    02:00 +29°C° 0.1 mm 3 mps 758 mmHg 79%
    03:00 +29°C° 0.1 mm 3 mps 757 mmHg 81%
    04:00 +28°C° 0.3 mm 2 mps 758 mmHg 81%
    05:00 +28°C° 0.3 mm 2 mps 758 mmHg 82%
    06:00 +28°C° 0.3 mm 1 mps 758 mmHg 82%
    07:00 +30°C° 0 mm 1 mps 759 mmHg 75%
    08:00 +31°C° 0 mm 1 mps 759 mmHg 68%
    09:00 +33°C° 0 mm 1 mps 760 mmHg 60%
    10:00 +35°C° 0 mm 1 mps 759 mmHg 54%
    11:00 +38°C° 0 mm 2 mps 759 mmHg 47%
    12:00 +40°C° 0 mm 2 mps 758 mmHg 40%
    13:00 +39°C° 0.2 mm 3 mps 758 mmHg 43%
    14:00 +38°C° 0.2 mm 3 mps 757 mmHg 45%
    15:00 +37°C° 0.2 mm 4 mps 756 mmHg 48%
    16:00 +36°C° 0.2 mm 4 mps 756 mmHg 51%
    17:00 +35°C° 0.2 mm 3 mps 756 mmHg 54%
    18:00 +34°C° 0.2 mm 3 mps 756 mmHg 57%
    19:00 +33°C° 0 mm 3 mps 757 mmHg 61%
    20:00 +31°C° 0 mm 3 mps 758 mmHg 65%
    21:00 +31°C° 0 mm 3 mps 759 mmHg 69%
    22:00 +30°C° 0 mm 3 mps 759 mmHg 71%
    23:00 +30°C° 0 mm 3 mps 759 mmHg 73%

    27 September, Wednesday

    Time Temperature Precipitation Wind Pressure Humidity
    00:00 +30°C° 0 mm 3 mps 759 mmHg 75%
    01:00 +29°C° 0 mm 3 mps 759 mmHg 76%
    02:00 +29°C° 0 mm 2 mps 758 mmHg 77%
    03:00 +29°C° 0 mm 2 mps 758 mmHg 78%
    04:00 +29°C° 0.1 mm 2 mps 759 mmHg 78%
    05:00 +28°C° 0.1 mm 1 mps 759 mmHg 79%
    06:00 +28°C° 0.1 mm 1 mps 759 mmHg 80%
    07:00 +30°C° 0 mm 1 mps 760 mmHg 70%
    08:00 +32°C° 0 mm 1 mps 760 mmHg 61%
    09:00 +32°C° 0 mm 0 mps 760 mmHg 51%
    10:00 +36°C° 0 mm 1 mps 760 mmHg 46%
    11:00 +38°C° 0 mm 2 mps 759 mmHg 40%
    12:00 +39°C° 0 mm 3 mps 758 mmHg 35%
    13:00 +39°C° 0 mm 3 mps 758 mmHg 36%
    14:00 +38°C° 0 mm 4 mps 757 mmHg 38%
    15:00 +38°C° 0 mm 4 mps 756 mmHg 39%
    16:00 +37°C° 0 mm 4 mps 756 mmHg 41%
    17:00 +35°C° 0 mm 4 mps 757 mmHg 43%
    18:00 +34°C° 0 mm 3 mps 757 mmHg 46%
    19:00 +33°C° 0 mm 4 mps 757 mmHg 53%
    20:00 +33°C° 0 mm 4 mps 758 mmHg 61%
    21:00 +32°C° 0 mm 4 mps 759 mmHg 69%
    22:00 +30°C° 0 mm 4 mps 759 mmHg 71%
    23:00 +30°C° 0 mm 3 mps 759 mmHg 74%

    28 September, Thursday

    Time Temperature Precipitation Wind Pressure Humidity
    00:00 +30°C° 0 mm 3 mps 759 mmHg 76%
    01:00 +29°C° 0 mm 2 mps 758 mmHg 77%
    02:00 +29°C° 0 mm 2 mps 758 mmHg 77%
    03:00 +29°C° 0 mm 1 mps 758 mmHg 78%
    04:00 +29°C° 0 mm 2 mps 758 mmHg 79%
    05:00 +28°C° 0 mm 2 mps 759 mmHg 79%
    06:00 +28°C° 0 mm 2 mps 759 mmHg 80%
    07:00 +30°C° 0 mm 2 mps 759 mmHg 71%
    08:00 +32°C° 0 mm 2 mps 760 mmHg 62%
    09:00 +35°C° 0 mm 2 mps 760 mmHg 53%
    10:00 +36°C° 0 mm 2 mps 759 mmHg 49%
    11:00 +37°C° 0 mm 3 mps 759 mmHg 44%
    12:00 +38°C° 0 mm 3 mps 758 mmHg 40%
    13:00 +37°C° 0 mm 3 mps 757 mmHg 41%
    14:00 +37°C° 0 mm 4 mps 757 mmHg 42%
    15:00 +36°C° 0 mm 4 mps 756 mmHg 44%
    16:00 +36°C° 0 mm 4 mps 756 mmHg 46%
    17:00 +35°C° 0 mm 4 mps 756 mmHg 48%
    18:00 +34°C° 0 mm 3 mps 757 mmHg 51%
    19:00 +33°C° 0 mm 4 mps 757 mmHg 58%
    20:00 +32°C° 0 mm 4 mps 757 mmHg 64%
    21:00 +30°C° 0 mm 4 mps 758 mmHg 71%
    22:00 +30°C° 0 mm 3 mps 758 mmHg 73%
    23:00 +30°C° 0 mm 3 mps 758 mmHg 75%
    Show more